Location: Unspecified
(49.2170°N, 0.0000°E)
Time: 00:45:14
(UTC+00:00)

A-11 Canister half - Pass Details

Date: 23 June 2021
Orbit: 1513 x 1687 km, 47.2° (Epoch: 30 July)

Event Time Altitude Azimuth Distance (km) Brightness Sun altitude
Exits shadow 01:57:13 10° 179° (S) 3,904 10.6 -13.0°
Maximum altitude 02:04:31 24° 132° (SE) 2,946 10.4 -12.4°
Drops below altitude 10° 02:11:49 10° 83° (E) 3,869 11.6 -11.8°
Sets 02:15:40 0° 71° (ENE) 4,831 12.5 -11.5°
